TimeEDT,TemperatureF,Dew PointF,Humidity,Sea Level PressureIn,VisibilityMPH,Wind Direction,Wind SpeedMPH,Gust SpeedMPH,PrecipitationIn,Events,Conditions,WindDirDegrees,DateUTC
12:15 AM,62.1,59.5,91,29.94,10.0,South,4.6,-,N/A,,Clear,180,2013-05-11 04:15:00
12:35 AM,62.1,59.4,91,29.93,10.0,Calm,Calm,-,N/A,,Scattered Clouds,0,2013-05-11 04:35:00
12:55 AM,61.9,59.4,91,29.93,10.0,South,3.5,-,N/A,,Mostly Cloudy,190,2013-05-11 04:55:00
1:15 AM,61.7,59.4,92,29.93,10.0,South,3.5,-,N/A,,Overcast,190,2013-05-11 05:15:00
1:35 AM,62.1,59.4,91,29.93,10.0,South,4.6,-,N/A,,Overcast,170,2013-05-11 05:35:00
1:55 AM,61.9,59.4,91,29.92,10.0,South,3.5,-,N/A,,Overcast,180,2013-05-11 05:55:00
2:15 AM,61.7,59.4,92,29.91,10.0,South,3.5,-,N/A,,Overcast,180,2013-05-11 06:15:00
2:35 AM,61.7,59.2,91,29.91,10.0,Calm,Calm,-,N/A,,Overcast,0,2013-05-11 06:35:00
2:55 AM,61.7,59.0,91,29.91,10.0,Calm,Calm,-,N/A,,Overcast,0,2013-05-11 06:55:00
3:15 AM,61.7,59.4,92,29.90,10.0,Calm,Calm,-,N/A,,Mostly Cloudy,0,2013-05-11 07:15:00
3:55 AM,62.1,59.4,91,29.90,10.0,South,4.6,-,N/A,,Scattered Clouds,180,2013-05-11 07:55:00
4:15 AM,62.2,59.4,90,29.89,10.0,Calm,Calm,-,N/A,,Scattered Clouds,0,2013-05-11 08:15:00
4:35 AM,61.9,59.4,91,29.88,10.0,South,3.5,-,N/A,,Mostly Cloudy,180,2013-05-11 08:35:00
4:55 AM,62.1,59.4,91,29.88,10.0,Calm,Calm,-,N/A,,Scattered Clouds,0,2013-05-11 08:55:00
5:15 AM,62.2,59.4,90,29.88,10.0,Calm,Calm,-,N/A,,Clear,0,2013-05-11 09:15:00
5:35 AM,62.1,59.4,91,29.88,10.0,Calm,Calm,-,N/A,,Clear,0,2013-05-11 09:35:00
5:55 AM,61.3,59.0,92,29.87,7.0,SSW,3.5,-,N/A,,Mostly Cloudy,200,2013-05-11 09:55:00
6:15 AM,60.6,58.8,94,29.88,7.0,Calm,Calm,-,N/A,,Scattered Clouds,0,2013-05-11 10:15:00
6:35 AM,61.5,59.4,93,29.88,7.0,South,4.6,-,N/A,,Mostly Cloudy,170,2013-05-11 10:35:00
6:55 AM,62.8,59.5,89,29.88,10.0,South,4.6,-,N/A,,Mostly Cloudy,190,2013-05-11 10:55:00
7:15 AM,63.3,60.1,89,29.88,10.0,South,4.6,-,N/A,,Overcast,190,2013-05-11 11:15:00
7:35 AM,64.4,60.1,86,29.88,10.0,South,4.6,-,N/A,,Overcast,180,2013-05-11 11:35:00
7:55 AM,64.9,60.1,84,29.88,10.0,South,5.8,-,N/A,,Mostly Cloudy,190,2013-05-11 11:55:00
8:15 AM,66.4,61.0,83,29.87,10.0,South,6.9,-,N/A,,Scattered Clouds,180,2013-05-11 12:15:00
8:35 AM,67.1,61.0,81,29.87,10.0,South,5.8,-,N/A,,Clear,180,2013-05-11 12:35:00
8:55 AM,67.6,61.0,79,29.87,10.0,South,5.8,-,N/A,,Clear,180,2013-05-11 12:55:00
9:15 AM,68.5,61.0,77,29.87,10.0,SSW,6.9,-,N/A,,Mostly Cloudy,200,2013-05-11 13:15:00
9:35 AM,69.8,59.0,68,29.87,10.0,SW,12.7,-,N/A,,Overcast,230,2013-05-11 13:35:00
9:55 AM,68.9,58.5,69,29.87,10.0,SW,10.4,17.3,N/A,,Overcast,230,2013-05-11 13:55:00
10:15 AM,68.9,57.4,67,29.86,10.0,WSW,9.2,17.3,N/A,,Overcast,240,2013-05-11 14:15:00
10:35 AM,70.2,59.0,68,29.86,10.0,SSW,10.4,-,N/A,,Overcast,200,2013-05-11 14:35:00
10:55 AM,69.8,57.4,65,29.85,10.0,SSW,13.8,-,N/A,,Overcast,210,2013-05-11 14:55:00
11:15 AM,70.3,57.9,65,29.86,10.0,WSW,10.4,20.7,N/A,,Mostly Cloudy,240,2013-05-11 15:15:00
11:35 AM,71.4,58.1,63,29.86,10.0,WSW,15.0,18.4,N/A,,Scattered Clouds,240,2013-05-11 15:35:00
11:55 AM,73.0,57.7,59,29.85,10.0,SW,12.7,23.0,N/A,,Clear,230,2013-05-11 15:55:00
12:15 PM,72.7,57.4,59,29.86,10.0,WSW,12.7,-,N/A,,Scattered Clouds,250,2013-05-11 16:15:00
12:35 PM,73.8,57.7,57,29.84,10.0,SSW,13.8,17.3,N/A,,Scattered Clouds,210,2013-05-11 16:35:00
12:55 PM,73.9,57.9,57,29.84,10.0,SW,12.7,16.1,N/A,,Clear,230,2013-05-11 16:55:00
1:15 PM,74.8,57.4,54,29.83,10.0,SW,10.4,18.4,N/A,,Clear,220,2013-05-11 17:15:00
1:35 PM,75.4,57.6,54,29.83,10.0,SW,12.7,-,N/A,,Clear,220,2013-05-11 17:35:00
1:55 PM,77.0,57.7,51,29.83,10.0,SW,13.8,18.4,N/A,,Scattered Clouds,220,2013-05-11 17:55:00
2:15 PM,75.4,57.0,53,29.83,10.0,SW,12.7,-,N/A,,Mostly Cloudy,230,2013-05-11 18:15:00
2:35 PM,74.8,56.7,53,29.83,10.0,SW,11.5,-,N/A,,Overcast,230,2013-05-11 18:35:00
2:55 PM,75.4,55.2,49,29.81,10.0,SW,13.8,21.9,N/A,,Scattered Clouds,230,2013-05-11 18:55:00
3:15 PM,77.0,57.2,50,29.81,10.0,SW,12.7,18.4,N/A,,Scattered Clouds,220,2013-05-11 19:15:00
3:35 PM,77.7,56.3,48,29.79,10.0,SSW,13.8,17.3,N/A,,Clear,200,2013-05-11 19:35:00
3:55 PM,77.9,54.5,44,29.79,10.0,SW,9.2,-,N/A,,Clear,230,2013-05-11 19:55:00
4:15 PM,78.3,53.2,42,29.78,10.0,WSW,11.5,18.4,N/A,,Scattered Clouds,240,2013-05-11 20:15:00
4:35 PM,79.0,53.4,41,29.77,10.0,SW,12.7,17.3,N/A,,Scattered Clouds,230,2013-05-11 20:35:00
4:55 PM,79.0,53.4,41,29.77,10.0,SW,13.8,20.7,N/A,,Scattered Clouds,220,2013-05-11 20:55:00
5:15 PM,78.3,55.0,45,29.77,10.0,South,12.7,17.3,N/A,,Mostly Cloudy,190,2013-05-11 21:15:00
5:35 PM,75.9,54.3,47,29.78,10.0,West,8.1,17.3,N/A,,Mostly Cloudy,270,2013-05-11 21:35:00
5:55 PM,73.6,53.8,50,29.79,10.0,NW,6.9,17.3,N/A,,Overcast,310,2013-05-11 21:55:00
6:15 PM,72.9,54.9,53,29.79,10.0,WNW,9.2,-,N/A,,Overcast,300,2013-05-11 22:15:00
6:35 PM,72.7,55.8,55,29.79,10.0,NNW,6.9,-,N/A,,Mostly Cloudy,330,2013-05-11 22:35:00
6:55 PM,71.6,56.3,58,29.79,10.0,Calm,Calm,-,N/A,,Overcast,0,2013-05-11 22:55:00
7:15 PM,71.2,56.5,60,29.80,10.0,NW,4.6,-,N/A,,Overcast,310,2013-05-11 23:15:00
7:35 PM,70.5,56.7,61,29.80,10.0,West,4.6,-,N/A,,Overcast,280,2013-05-11 23:35:00
7:55 PM,70.3,55.2,59,29.80,10.0,West,4.6,-,N/A,,Scattered Clouds,260,2013-05-11 23:55:00
8:15 PM,69.4,55.2,60,29.81,10.0,Calm,Calm,-,N/A,,Scattered Clouds,0,2013-05-12 00:15:00
8:35 PM,68.7,54.5,60,29.81,10.0,West,3.5,-,N/A,,Scattered Clouds,260,2013-05-12 00:35:00
8:55 PM,65.7,55.6,70,29.81,10.0,WSW,3.5,-,N/A,,Mostly Cloudy,250,2013-05-12 00:55:00
9:15 PM,67.1,54.9,65,29.81,10.0,West,5.8,-,N/A,,Overcast,260,2013-05-12 01:15:00
9:35 PM,67.5,53.8,61,29.81,10.0,West,6.9,-,N/A,,Overcast,260,2013-05-12 01:35:00
9:55 PM,66.9,53.6,62,29.81,10.0,West,4.6,-,N/A,,Scattered Clouds,260,2013-05-12 01:55:00
10:15 PM,66.7,52.9,61,29.81,10.0,WSW,5.8,-,N/A,,Scattered Clouds,250,2013-05-12 02:15:00
10:35 PM,66.0,52.3,61,29.82,10.0,WSW,5.8,-,N/A,,Scattered Clouds,240,2013-05-12 02:35:00
10:55 PM,64.6,52.5,65,29.83,10.0,WSW,6.9,-,N/A,,Clear,240,2013-05-12 02:55:00
11:15 PM,64.2,52.0,64,29.82,10.0,WSW,5.8,-,N/A,,Clear,250,2013-05-12 03:15:00
11:35 PM,64.6,50.9,61,29.83,10.0,West,8.1,-,N/A,,Clear,270,2013-05-12 03:35:00
11:55 PM,64.6,50.7,61,29.84,10.0,Calm,Calm,-,N/A,,Scattered Clouds,0,2013-05-12 03:55:00